Flag for U.S.A. Weather past 2 weeks in Pembroke Pines, Florida, U.S.A.

Now
67 °F

Clear.


Feels Like: 67 °F
Forecast: 71 / 81 °F
Wind: 10 mph from Northwest

Location: North Perry Airport

Current Time: Oct 25, 2014 at 9:01:15 AM

Latest Report: Oct 25, 2014 at 7:53 AM


Visibility: 10 mi

Pressure: 29.91 "Hg

Humidity: 87%

Dew point: 63 °F

Location of Pembroke PinesLocation

Historic Weather in Pembroke Pines — Graph

°F

Pembroke Pines temperature yesterday

Maximum temperature yesterday: 79 °F (at 5:53 PM)
Minimum temperature yesterday: 73 °F (at 11:53 PM)
Average temperature yesterday: 77 °F

Past Weeks' High & Low Weather Summary

 TemperatureHumidityPressure
High89 °F (Oct 11, 1:53 PM)97% (Oct 15, 4:53 AM)30.09 "Hg (Oct 15, 4:53 AM)
Low65 °F (Oct 17, 6:53 AM)35% (Oct 17, 12:53 PM)29.82 "Hg (Oct 24, 5:53 PM)
Average78 °F73%29.96 "Hg
* Reported Oct 10 7:53 AM — Oct 25 7:53 AM, Pembroke Pines, Weather by CustomWeather, © 2014

Note: Actual official high and low records may vary slightly from our data, if they occured in-between our weather recording intervals... More about our weather records

Advertising

Pembroke Pines weather history for previous 24 hours

 ConditionsComfort  
Time TempWeatherWind HumidityBarometerVisibility
7:53 AM
Oct 25
67 °FClear.10 mph87%29.91 "Hg10 mi
6:53 AM66 °FClear.8 mph90%29.89 "Hg10 mi
5:53 AM68 °FClear.8 mph84%29.87 "Hg10 mi
4:53 AM69 °FClear.8 mph81%29.86 "Hg10 mi
3:53 AM69 °FClear.8 mph84%29.86 "Hg10 mi
2:53 AM70 °FClear.9 mph84%29.87 "Hg10 mi
1:53 AM71 °FClear.12 mph81%29.88 "Hg10 mi
12:53 AM72 °FPassing clouds.9 mph84%29.88 "Hg10 mi
11:53 PM
Oct 24
73 °FPassing clouds.8 mph81%29.88 "Hg10 mi
10:53 PM75 °FPassing clouds.8 mph82%29.88 "Hg10 mi
9:53 PM75 °FPartly cloudy.8 mph82%29.87 "Hg10 mi
8:53 PM74 °FOvercast.9 mph88%29.85 "Hg10 mi
7:53 PM76 °FLight rain. Overcast.14 mph80%29.84 "Hg10 mi
6:53 PM78 °FCloudy.9 mph71%29.83 "Hg10 mi
5:53 PM79 °FMostly cloudy.14 mph69%29.82 "Hg10 mi
4:53 PM78 °FOvercast.12 mph71%29.83 "Hg10 mi
3:53 PM77 °FOvercast.15 mph77%29.83 "Hg10 mi
2:53 PM78 °FLight rain. More clouds than sun.14 mph74%29.84 "Hg10 mi
1:53 PM77 °FLight rain. Mostly cloudy.18 mph79%29.85 "Hg10 mi
12:53 PM75 °FLight rain. Cloudy.17 mph85%29.88 "Hg10 mi
11:53 AM78 °FOvercast.20 mph76%29.90 "Hg10 mi
10:53 AM77 °FLight rain. Mostly cloudy.16 mph79%29.90 "Hg10 mi
9:53 AM77 °FMore clouds than sun.17 mph79%29.89 "Hg10 mi
Weather by CustomWeather, © 2014

See weather overviewHow to use our weather pages